Location: Auckland
(36.8670°S, 174.7670°E)
Time: 23:47:45
(UTC+13:00)

ARGOS - Pass Details

Date: 24 January 2019
Orbit: 821 x 834 km, 98.5° (Epoch: 17 October)

Event Time Altitude Azimuth Distance (km) Brightness Sun altitude
Rises 21:32:59 0° 150° (SSE) 3,387 6.4 -10.4°
Reaches altitude 10° 21:36:02 10° 132° (SE) 2,444 5.5 -10.9°
Maximum altitude 21:39:52 20° 87° (E) 1,855 4.5 -11.5°
Enters shadow 21:41:57 16° 58° (ENE) 2,040 4.5 -11.9°
